EW9523 Weather Reports


Display with metric or nautical units.
time (UTC)temp
F
wind
direction
speed
MPH
gust
MPH
rain 1hr
in
rain 24hr
in
rain mn
in
humidity
%
barometer
mb
20260902024951 65 239 1.0 3.0 0.00 0.00 0.00 69 1014.0
20260902023946 65 231 2.0 9.0 0.00 0.00 0.00 68 1014.1
20260902022946 65 225 3.0 10.0 0.00 0.00 0.00 67 1014.1
20260902021946 65 267 4.0 10.0 0.00 0.00 0.00 66 1014.1
20260902020944 66 315 2.0 10.0 0.00 0.00 0.00 65 1014.2
20260902020428 66 289 2.0 5.0 0.00 0.00 0.00 64 1014.2
20260902014939 67 199 3.0 10.0 0.00 0.00 0.00 63 1014.2
20260902013940 67 294 3.0 11.0 0.00 0.00 0.00 61 1014.2
20260902012938 68 286 5.0 16.0 0.00 0.00 0.00 60 1014.2
20260902011938 69 275 5.0 16.0 0.00 0.00 0.00 58 1014.0
20260902010938 69 252 4.0 11.0 0.00 0.00 0.00 58 1013.9
20260902005936 70 274 5.0 15.0 0.00 0.00 0.00 57 1013.7
20260902004936 71 209 5.0 10.0 0.00 0.00 0.00 55 1013.7
20260902003936 72 227 5.0 12.0 0.00 0.00 0.00 55 1013.6
20260902002936 72 233 5.0 12.0 0.00 0.00 0.00 54 1013.6
20260902001936 72 227 6.0 12.0 0.00 0.00 0.00 54 1013.5
20260902000935 72 189 5.0 12.0 0.00 0.00 0.00 54 1013.6
20260902000907 72 269 4.0 10.0 0.00 0.00 0.00 55 1013.6
20260901234924 71 268 5.0 13.0 0.00 0.00 0.00 56 1013.5
20260901233924 71 275 5.0 12.0 0.00 0.00 0.00 55 1013.6
20260901232924 71 270 3.0 10.0 0.00 0.00 0.00 54 1013.5
20260901231922 71 249 3.0 10.0 0.00 0.00 0.00 54 1013.5
20260901230922 71 307 4.0 12.0 0.00 0.00 0.00 54 1013.6
20260901230355 71 223 4.0 10.0 0.00 0.00 0.00 53 1013.6
20260901224917 70 157 4.0 11.0 0.00 0.00 0.00 54 1013.6
20260901223914 70 203 5.0 10.0 0.00 0.00 0.00 56 1013.5
20260901222913 69 239 6.0 14.0 0.00 0.00 0.00 57 1013.5
20260901221914 70 338 7.0 16.0 0.00 0.00 0.00 57 1013.5
20260901220902 70 271 7.0 17.0 0.00 0.00 0.00 57 1013.8
20260901220327 71 277 4.0 17.0 0.00 0.00 0.00 56 1013.7
20260901214850 72 215 2.0 5.0 0.00 0.00 0.00 54 1013.7
20260901213849 71 182 4.0 10.0 0.00 0.00 0.00 55 1013.6
20260901212849 72 248 2.0 6.0 0.00 0.00 0.00 55 1013.6
20260901211849 71 251 3.0 6.0 0.00 0.00 0.00 55 1013.6
20260901210844 72 246 3.0 9.0 0.00 0.00 0.00 55 1013.5
20260901205844 72 205 2.0 6.0 0.00 0.00 0.00 55 1013.6
20260901204841 72 229 2.0 7.0 0.00 0.00 0.00 55 1013.6
20260901203839 72 281 4.0 10.0 0.00 0.00 0.00 56 1013.5
20260901202839 72 264 3.0 11.0 0.00 0.00 0.00 57 1013.6
20260901201833 71 220 1.0 5.0 0.00 0.00 0.00 61 1013.9
20260901201304 70 161 1.0 4.0 0.00 0.00 0.00 62 1014.0
20260901195824 69 153 1.0 3.0 0.00 0.00 0.00 62 1014.1
20260901194824 69 46 2.0 7.0 0.00 0.00 0.00 64 1014.2
20260901193822 69 174 3.0 9.0 0.00 0.00 0.00 66 1014.4
20260901192821 69 229 3.0 9.0 0.00 0.00 0.00 67 1014.3
20260901191821 69 204 1.0 6.0 0.00 0.00 0.00 65 1014.2
20260901190821 69 74 2.0 6.0 0.00 0.00 0.00 65 1014.3
20260901185821 69 162 2.0 6.0 0.00 0.00 0.00 68 1014.5
20260901185305 68 82 2.0 5.0 0.00 0.00 0.00 70 1014.6
20260901183813 67 237 1.0 4.0 0.00 0.00 0.00 72 1014.6
20260901182811 66 186 1.0 7.0 0.00 0.00 0.00 73 1014.6
20260901181810 65 50 2.0 4.0 0.00 0.00 0.00 74 1014.5
20260901180754 65 141 1.0 3.0 0.00 0.00 0.00 76 1014.6
20260901180219 64 160 1.0 4.0 0.00 0.00 0.00 79 1014.5
20260901174738 63 171 1.0 4.0 0.00 0.00 0.00 81 1014.5
20260901173734 63 121 2.0 5.0 0.00 0.00 0.00 82 1014.3
20260901172734 62 98 2.0 4.0 0.00 0.00 0.00 82 1014.2
20260901171733 62 112 1.0 3.0 0.00 0.00 0.00 81 1014.2
20260901170731 63 292 1.0 4.0 0.00 0.00 0.00 79 1014.2
20260901170212 64 43 1.0 5.0 0.00 0.00 0.00 77 1014.0
20260901164731 64 190 2.0 5.0 0.00 0.00 0.00 77 1014.0
20260901163731 63 169 1.0 4.0 0.00 0.00 0.00 79 1013.9
20260901162720 62 111 1.0 4.0 0.00 0.00 0.00 82 1014.0
20260901161717 62 88 0.0 4.0 0.00 0.00 0.00 84 1014.0
20260901160717 61 165 1.0 4.0 0.00 0.00 0.00 86 1013.8
20260901155716 60 179 2.0 4.0 0.00 0.00 0.00 86 1013.8
20260901155153 60 160 1.0 3.0 0.00 0.00 0.00 85 1013.9
20260901153715 60 169 1.0 3.0 0.00 0.00 0.00 83 1013.9
20260901152713 60 155 0.0 2.0 0.00 0.00 0.00 83 1013.7
20260901151712 60 128 1.0 4.0 0.00 0.00 0.00 84 1013.6
20260901150706 60 134 0.0 3.0 0.00 0.00 0.00 85 1013.4
20260901145707 59 143 1.0 4.0 0.00 0.00 0.00 85 1013.3
20260901144706 59 162 1.0 3.0 0.00 0.00 0.00 84 1013.1
20260901143653 60 150 1.0 4.0 0.00 0.00 0.00 84 1013.0
20260901142641 60 105 1.0 4.0 0.00 0.00 0.00 85 1012.8
20260901141629 59 105 1.0 3.0 0.00 0.00 0.00 86 1012.7
20260901141059 59 113 0.0 2.0 0.00 0.00 0.00 86 1012.6
20260901135621 58 113 1.0 4.0 0.00 0.00 0.00 87 1012.5
20260901134557 58 112 0.0 2.0 0.00 0.00 0.00 86 1012.4
20260901133544 58 150 0.0 2.0 0.00 0.00 0.00 86 1012.2
20260901132542 58 113 0.0 0.0 0.00 0.00 0.00 86 1012.0
20260901131541 58 113 0.0 0.0 0.00 0.00 0.00 86 1012.0
20260901130535 58 114 0.0 1.0 0.00 0.00 0.00 86 1012.0
20260901125533 58 113 0.0 1.0 0.00 0.00 0.00 86 1012.0
20260901124533 58 114 0.0 0.0 0.00 0.00 0.00 86 1012.0
20260901123533 58 113 0.0 0.0 0.00 0.00 0.00 86 1012.0
20260901122532 58 113 0.0 1.0 0.00 0.00 0.00 86 1011.8
20260901121533 58 113 0.0 2.0 0.00 0.00 0.00 86 1011.8
20260901120528 58 113 0.0 1.0 0.00 0.00 0.00 87 1011.7
20260901115523 58 113 1.0 4.0 0.00 0.00 0.00 87 1011.8
20260901114955 58 78 1.0 4.0 0.00 0.00 0.00 87 1011.9
20260901113521 58 169 1.0 6.0 0.00 0.00 0.00 86 1011.9
20260901112519 58 173 0.0 4.0 0.00 0.00 0.00 85 1011.8
20260901111518 58 130 2.0 4.0 0.00 0.00 0.00 86 1011.7
20260901110516 58 123 1.0 4.0 0.00 0.00 0.00 86 1012.1
20260901105947 58 119 1.0 3.0 0.00 0.00 0.00 87 1012.3
20260901104509 58 152 1.0 3.0 0.00 0.00 0.00 86 1012.3
20260901103951 58 134 2.0 5.0 0.00 0.00 0.00 86 1012.3
20260901102501 58 139 2.0 5.0 0.00 0.00 0.00 85 1012.2
20260901101501 58 160 1.0 4.0 0.00 0.00 0.00 84 1012.0
20260901100942 58 121 1.0 3.0 0.00 0.00 0.00 84 1011.9
20260901095440 59 140 0.0 2.0 0.00 0.00 0.00 83 1011.8
20260901094439 59 118 0.0 0.0 0.00 0.00 0.00 82 1011.8
20260901093439 58 118 0.0 2.0 0.00 0.00 0.00 83 1011.7
20260901092437 58 118 0.0 2.0 0.00 0.00 0.00 84 1011.7
20260901091908 58 123 0.0 3.0 0.00 0.00 0.00 84 1011.9
20260901090437 58 120 1.0 5.0 0.00 0.00 0.00 84 1011.7
20260901085415 58 119 0.0 0.0 0.00 0.00 0.00 84 1011.7
20260901084352 58 119 0.0 0.0 0.00 0.00 0.00 84 1011.6
20260901083351 58 119 0.0 2.0 0.00 0.00 0.00 85 1011.5
20260901082329 57 35 0.0 0.0 0.00 0.00 0.00 84 1011.7
20260901081316 57 35 0.0 0.0 0.00 0.00 0.00 85 1011.6
20260901080753 57 35 0.0 0.0 0.00 0.00 0.00 86 1011.6
20260901075253 56 44 0.0 0.0 0.00 0.00 0.00 86 1011.7
20260901074246 56 44 0.0 2.0 0.00 0.00 0.00 86 1011.7
20260901073236 56 44 2.0 3.0 0.00 0.00 0.00 84 1011.5
20260901072234 56 46 2.0 4.0 0.00 0.00 0.00 84 1011.4
20260901071235 56 46 2.0 3.0 0.00 0.00 0.00 85 1011.4
20260901070234 57 46 1.0 3.0 0.00 0.00 0.00 84 1011.5
20260901065229 57 46 2.0 3.0 0.00 0.00 0.00 84 1011.6
20260901064218 57 52 2.0 3.0 0.00 0.00 0.00 85 1011.6
20260901063214 56 51 3.0 5.0 0.00 0.00 0.00 86 1011.6
20260901062213 56 46 2.0 5.0 0.00 0.00 0.00 87 1011.6
20260901061211 56 47 1.0 4.0 0.00 0.00 0.00 85 1011.7
20260901060643 57 30 1.0 4.0 0.00 0.00 0.00 84 1011.5
20260901055209 57 63 1.0 3.0 0.00 0.00 0.00 84 1011.7
20260901054209 57 49 0.0 3.0 0.00 0.00 0.00 83 1011.8
20260901053650 58 51 0.0 0.0 0.00 0.00 0.00 82 1011.8
20260901052159 59 67 0.0 0.0 0.00 0.00 0.00 83 1011.8
20260901051153 59 112 0.0 0.0 0.00 0.00 0.00 81 1011.8
20260901050153 60 80 0.0 0.0 0.00 0.00 0.00 81 1011.8
20260901045140 60 129 0.0 2.0 0.00 0.00 0.00 80 1011.7
20260901044131 61 101 1.0 4.0 0.00 0.00 0.00 79 1011.8
20260901043601 62 119 1.0 4.0 0.00 0.00 0.00 78 1011.7
20260901042118 62 128 0.0 3.0 0.00 0.00 0.00 77 1011.6
20260901041055 63 117 0.0 2.0 0.00 0.00 0.00 76 1011.3
20260901040052 64 220 0.0 2.0 0.00 0.00 0.00 75 1011.0
20260901035052 64 213 1.0 3.0 0.00 0.00 0.00 74 1010.9
20260901034049 65 180 1.0 3.0 0.00 0.00 0.00 73 1010.9
20260901034008 65 159 1.0 6.0 0.00 0.00 0.00 72 1010.8
20260901032045 66 137 1.0 5.0 0.00 0.00 0.00 71 1010.6
20260901031523 66 105 1.0 5.0 0.00 0.00 0.00 70 1010.4
20260901030039 67 161 2.0 5.0 0.00 0.00 0.00 69 1010.3